When you browse on this site, cookies collect data to enhance your experience and personalize the content and advertising you see.
Visit our Privacy Policy to learn more. By continuing to use the site, you agree to this use of cookies and data.
  • In Belgium
  • List of Countries
  • For 7 days
  • Water Temperature
  • Satellite Maps
  • Weather Map
  • Weather Widgets
  • user-avatar
    Login

    Hourly Weather Aarschot

    Today, 21 February, Thursday

    Time Temperature Precipitation Wind Pressure Humidity
    00:00 +5°C° 0 mm 3 mps 765 mmHg 92%
    01:00 +4°C° 0 mm 3 mps 765 mmHg 92%
    02:00 +4°C° 0 mm 3 mps 765 mmHg 93%
    03:00 +4°C° 0 mm 3 mps 765 mmHg 93%
    04:00 +4°C° 0 mm 3 mps 765 mmHg 93%
    05:00 +4°C° 0 mm 3 mps 766 mmHg 93%
    06:00 +4°C° 0 mm 3 mps 766 mmHg 93%
    07:00 +5°C° 0 mm 3 mps 766 mmHg 90%
    08:00 +7°C° 0 mm 3 mps 766 mmHg 86%
    09:00 +7°C° 0 mm 4 mps 766 mmHg 83%
    10:00 +9°C° 0 mm 3 mps 766 mmHg 78%
    11:00 +11°C° 0 mm 3 mps 767 mmHg 72%
    12:00 +12°C° 0 mm 3 mps 767 mmHg 67%
    13:00 +12°C° 0 mm 3 mps 767 mmHg 66%
    14:00 +12°C° 0 mm 3 mps 767 mmHg 66%
    15:00 +13°C° 0 mm 3 mps 767 mmHg 65%
    16:00 +13°C° 0 mm 2 mps 767 mmHg 71%
    17:00 +10°C° 0 mm 2 mps 767 mmHg 76%
    18:00 +9°C° 0 mm 2 mps 768 mmHg 82%
    19:00 +9°C° 0 mm 2 mps 768 mmHg 84%
    20:00 +8°C° 0 mm 2 mps 768 mmHg 86%
    21:00 +8°C° 0 mm 2 mps 769 mmHg 88%
    22:00 +8°C° 0 mm 2 mps 769 mmHg 89%
    23:00 +7°C° 0 mm 2 mps 770 mmHg 90%

    Tomorrow, 22 February, Friday

    Time Temperature Precipitation Wind Pressure Humidity
    00:00 +7°C° 0 mm 2 mps 770 mmHg 91%
    01:00 +8°C° 0 mm 1 mps 770 mmHg 91%
    02:00 +8°C° 0 mm 1 mps 770 mmHg 91%
    03:00 +7°C° 0 mm 1 mps 770 mmHg 91%
    04:00 +7°C° 0 mm 1 mps 771 mmHg 91%
    05:00 +7°C° 0 mm 1 mps 771 mmHg 90%
    06:00 +7°C° 0 mm 1 mps 771 mmHg 90%
    07:00 +8°C° 0 mm 1 mps 771 mmHg 86%
    08:00 +8°C° 0 mm 0 mps 772 mmHg 82%
    09:00 +9°C° 0 mm 0 mps 772 mmHg 78%
    10:00 +11°C° 0 mm 0 mps 772 mmHg 74%
    11:00 +12°C° 0 mm 0 mps 772 mmHg 70%
    12:00 +15°C° 0 mm 1 mps 772 mmHg 66%
    13:00 +15°C° 0 mm 1 mps 772 mmHg 67%
    14:00 +15°C° 0 mm 1 mps 772 mmHg 67%
    15:00 +16°C° 0 mm 2 mps 772 mmHg 67%
    16:00 +15°C° 0 mm 2 mps 772 mmHg 72%
    17:00 +14°C° 0 mm 2 mps 773 mmHg 78%
    18:00 +13°C° 0 mm 2 mps 773 mmHg 83%
    19:00 +12°C° 0 mm 2 mps 773 mmHg 86%
    20:00 +10°C° 0 mm 2 mps 773 mmHg 89%
    21:00 +9°C° 0 mm 2 mps 773 mmHg 92%
    22:00 +8°C° 0 mm 2 mps 773 mmHg 92%
    23:00 +8°C° 0 mm 3 mps 773 mmHg 92%

    Day after tomorrow, 23 February, Saturday

    Time Temperature Precipitation Wind Pressure Humidity
    00:00 +7°C° 0 mm 3 mps 773 mmHg 92%
    01:00 +7°C° 0 mm 2 mps 773 mmHg 92%
    02:00 +6°C° 0 mm 2 mps 773 mmHg 92%
    03:00 +6°C° 0 mm 2 mps 773 mmHg 92%
    04:00 +6°C° 0 mm 2 mps 773 mmHg 92%
    05:00 +6°C° 0 mm 2 mps 773 mmHg 91%
    06:00 +5°C° 0 mm 2 mps 773 mmHg 91%
    07:00 +6°C° 0 mm 2 mps 773 mmHg 85%
    08:00 +7°C° 0 mm 2 mps 773 mmHg 80%
    09:00 +8°C° 0 mm 3 mps 773 mmHg 74%
    10:00 +10°C° 0 mm 3 mps 773 mmHg 67%
    11:00 +11°C° 0 mm 3 mps 773 mmHg 61%
    12:00 +13°C° 0 mm 3 mps 773 mmHg 54%
    13:00 +13°C° 0 mm 3 mps 773 mmHg 51%
    14:00 +14°C° 0 mm 3 mps 773 mmHg 49%
    15:00 +14°C° 0 mm 3 mps 772 mmHg 47%
    16:00 +13°C° 0 mm 3 mps 773 mmHg 50%
    17:00 +11°C° 0 mm 3 mps 773 mmHg 53%
    18:00 +9°C° 0 mm 3 mps 773 mmHg 56%
    19:00 +9°C° 0 mm 3 mps 773 mmHg 56%
    20:00 +8°C° 0 mm 3 mps 773 mmHg 56%
    21:00 +7°C° 0 mm 3 mps 773 mmHg 56%
    22:00 +7°C° 0 mm 2 mps 773 mmHg 55%
    23:00 +6°C° 0 mm 2 mps 773 mmHg 54%

    24 February, Sunday

    Time Temperature Precipitation Wind Pressure Humidity
    00:00 +6°C° 0 mm 2 mps 773 mmHg 53%
    01:00 +5°C° 0 mm 2 mps 773 mmHg 52%
    02:00 +5°C° 0 mm 2 mps 773 mmHg 52%
    03:00 +5°C° 0 mm 2 mps 773 mmHg 51%
    04:00 +5°C° 0 mm 2 mps 773 mmHg 52%
    05:00 +4°C° 0 mm 2 mps 773 mmHg 52%
    06:00 +4°C° 0 mm 2 mps 773 mmHg 53%
    07:00 +5°C° 0 mm 2 mps 774 mmHg 51%
    08:00 +6°C° 0 mm 2 mps 774 mmHg 50%
    09:00 +8°C° 0 mm 3 mps 774 mmHg 48%
    10:00 +9°C° 0 mm 3 mps 774 mmHg 46%
    11:00 +11°C° 0 mm 3 mps 774 mmHg 43%
    12:00 +13°C° 0 mm 3 mps 774 mmHg 41%
    13:00 +13°C° 0 mm 3 mps 774 mmHg 42%
    14:00 +14°C° 0 mm 3 mps 773 mmHg 43%
    15:00 +14°C° 0 mm 3 mps 773 mmHg 44%
    16:00 +13°C° 0 mm 3 mps 773 mmHg 48%
    17:00 +11°C° 0 mm 3 mps 774 mmHg 53%
    18:00 +9°C° 0 mm 3 mps 774 mmHg 57%
    19:00 +9°C° 0 mm 3 mps 774 mmHg 59%
    20:00 +8°C° 0 mm 3 mps 774 mmHg 60%
    21:00 +8°C° 0 mm 2 mps 774 mmHg 61%
    22:00 +8°C° 0 mm 2 mps 774 mmHg 61%
    23:00 +7°C° 0 mm 2 mps 774 mmHg 61%

    25 February, Monday

    Time Temperature Precipitation Wind Pressure Humidity
    00:00 +7°C° 0 mm 2 mps 774 mmHg 61%
    01:00 +7°C° 0 mm 2 mps 774 mmHg 62%
    02:00 +6°C° 0 mm 2 mps 774 mmHg 63%
    03:00 +6°C° 0 mm 2 mps 774 mmHg 64%
    04:00 +7°C° 0 mm 1 mps 774 mmHg 64%
    05:00 +7°C° 0 mm 1 mps 774 mmHg 64%
    06:00 +6°C° 0 mm 1 mps 774 mmHg 65%
    07:00 +8°C° 0 mm 1 mps 774 mmHg 62%
    08:00 +9°C° 0 mm 1 mps 774 mmHg 60%
    09:00 +10°C° 0 mm 1 mps 774 mmHg 57%
    10:00 +12°C° 0 mm 2 mps 774 mmHg 53%
    11:00 +14°C° 0 mm 2 mps 774 mmHg 49%
    12:00 +15°C° 0 mm 2 mps 774 mmHg 46%
    13:00 +16°C° 0 mm 2 mps 773 mmHg 46%
    14:00 +16°C° 0 mm 2 mps 773 mmHg 47%
    15:00 +17°C° 0 mm 2 mps 772 mmHg 47%
    16:00 +15°C° 0 mm 2 mps 772 mmHg 53%
    17:00 +13°C° 0 mm 2 mps 773 mmHg 60%
    18:00 +12°C° 0 mm 2 mps 773 mmHg 66%
    19:00 +10°C° 0 mm 2 mps 773 mmHg 69%
    20:00 +10°C° 0 mm 2 mps 773 mmHg 71%
    21:00 +9°C° 0 mm 2 mps 773 mmHg 74%
    22:00 +9°C° 0 mm 2 mps 773 mmHg 75%
    23:00 +8°C° 0 mm 2 mps 772 mmHg 75%

    26 February, Tuesday

    Time Temperature Precipitation Wind Pressure Humidity
    00:00 +8°C° 0 mm 2 mps 772 mmHg 76%
    01:00 +7°C° 0 mm 2 mps 771 mmHg 75%
    02:00 +8°C° 0 mm 1 mps 771 mmHg 75%
    03:00 +6°C° 0 mm 0 mps 771 mmHg 74%
    04:00 +7°C° 0 mm 1 mps 770 mmHg 75%
    05:00 +7°C° 0 mm 1 mps 770 mmHg 75%
    06:00 +5°C° 0 mm 2 mps 770 mmHg 76%
    07:00 +6°C° 0 mm 2 mps 770 mmHg 70%
    08:00 +8°C° 0 mm 2 mps 770 mmHg 64%
    09:00 +9°C° 0 mm 2 mps 770 mmHg 58%
    10:00 +12°C° 0 mm 2 mps 769 mmHg 52%
    11:00 +13°C° 0 mm 2 mps 769 mmHg 45%
    12:00 +15°C° 0 mm 2 mps 769 mmHg 38%
    13:00 +16°C° 0 mm 2 mps 768 mmHg 39%
    14:00 +16°C° 0 mm 3 mps 767 mmHg 41%
    15:00 +17°C° 0 mm 3 mps 767 mmHg 42%
    16:00 +14°C° 0 mm 3 mps 766 mmHg 47%
    17:00 +12°C° 0 mm 3 mps 766 mmHg 53%
    18:00 +10°C° 0 mm 3 mps 766 mmHg 58%
    19:00 +10°C° 0 mm 2 mps 766 mmHg 59%
    20:00 +9°C° 0 mm 2 mps 766 mmHg 61%
    21:00 +8°C° 0 mm 2 mps 766 mmHg 62%
    22:00 +8°C° 0 mm 2 mps 765 mmHg 61%
    23:00 +7°C° 0 mm 2 mps 765 mmHg 60%
    Show more